Hourly Data Report for March 14, 2012

BAGOTVILLE A
QUEBEC

48°20'00.000" N
71°00'00.000" W
159.10 m
7060400
71727
YBG

Download Data

Hourly Data (March 2012)
Hourly Data Report for March 14, 2012
TIME
LST
Temp Definition
°C
Dew Point Definition
°C
Rel Hum Definition
%
Precip. Amount Definition
mm

Wind Dir Definition
10's deg

Wind Spd Definition
km/h
Visibility Definition
km
Stn Press Definition
kPa
Hmdx Definition


Wind Chill Definition


Weather Definition


00:00 -4.1 -6.4 84   11 30 24.1 99.86   -12 Cloudy
01:00 -4.2 -5.9 88   11 30 9.7 99.90   -12 Ice Pellets
02:00 -4.4 -6.2 87   10 35 6.4 99.90   -13 Snow,Ice Pellets,Blowing Snow
03:00 -4.6 -6.4 87   10 35 3.2 99.92   -13 Snow,Blowing Snow
04:00 -4.8 -6.3 89   11 24 2.0 100.03   -12 Snow,Blowing Snow
05:00 -5.0 -6.6 89   11 28 1.6 100.10   -13 Snow,Blowing Snow
06:00 -5.2 -6.5 91   11 26 0.8 100.21   -13 Snow,Blowing Snow
07:00 -5.2 -6.2 93   11 20 1.6 100.32   -12 Snow,Blowing Snow
08:00 -4.7 -6.5 87   10 24 4.8 100.35   -12 Snow
09:00 -3.7 -7.3 76   10 30 40.2 100.40   -11 Snow
10:00 -3.4 -5.9 83   10 30 40.2 100.43   -11 Cloudy
11:00 -3.2 -6.0 81   11 30 40.2 100.44   -11 Cloudy
12:00 -3.0 -5.4 83   11 28 40.2 100.48   -10 Cloudy
13:00 -2.9 -5.3 83   10 26 32.2 100.48   -10 Cloudy
14:00 -2.3 -5.8 77   11 33 40.2 100.56   -10 Cloudy
15:00 -2.2 -5.0 81   11 33 40.2 100.61   -10 Mostly Cloudy
16:00 -2.7 -5.4 82   11 30 19.3 100.70   -10 Snow Showers
17:00 -2.9 -5.0 85   11 19 4.0 100.77   -9 Snow Showers
18:00 -2.9 -5.9 80   11 20 9.7 100.85   -9 Snow Showers
19:00 -3.2 -5.4 85   12 22 16.1 100.92   -10 Snow Showers
20:00 -3.1 -5.9 81   12 19 19.3 100.98   -9 Snow Showers
21:00 -3.8 -6.4 82   11 17 24.1 101.00   -10 Mainly Clear
22:00 -3.9 -6.8 80   11 17 24.1 101.02   -10 Mainly Clear
23:00 -4.0 -6.3 84   11 17 24.1 101.00   -10 Mainly Clear

Notes on Data Quality.

Legend

  • E = Estimated
  • M = Missing
  • NA = Not Available*
  • [empty] = Indicates an unobserved value
Date modified: